TimeCST,TemperatureF,Dew PointF,Humidity,Sea Level PressureIn,VisibilityMPH,Wind Direction,Wind SpeedMPH,Gust SpeedMPH,PrecipitationIn,Events,Conditions,WindDirDegrees,DateUTC
12:15 AM,35.6,30.2,81,29.94,10.0,Calm,Calm,-,N/A,,Clear,0,2013-02-05 06:15:00
12:55 AM,35.6,30.2,81,29.93,10.0,Calm,Calm,-,N/A,,Clear,0,2013-02-05 06:55:00
1:35 AM,33.8,30.2,87,29.93,10.0,Calm,Calm,-,N/A,,Clear,0,2013-02-05 07:35:00
1:55 AM,33.8,30.2,87,29.92,10.0,Calm,Calm,-,N/A,,Clear,0,2013-02-05 07:55:00
2:15 AM,33.8,28.4,81,29.92,10.0,SE,3.5,-,N/A,,Clear,130,2013-02-05 08:15:00
2:35 AM,32.0,26.6,80,29.92,10.0,Calm,Calm,-,N/A,,Clear,0,2013-02-05 08:35:00
3:15 AM,33.8,28.4,81,29.90,10.0,Calm,Calm,-,N/A,,Clear,0,2013-02-05 09:15:00
3:35 AM,32.0,28.4,87,29.90,10.0,Calm,Calm,-,N/A,,Clear,0,2013-02-05 09:35:00
4:15 AM,33.8,30.2,87,29.91,10.0,Calm,Calm,-,N/A,,Clear,0,2013-02-05 10:15:00
4:35 AM,32.0,28.4,87,29.91,10.0,Calm,Calm,-,N/A,,Clear,0,2013-02-05 10:35:00
5:15 AM,30.2,28.4,93,29.92,10.0,Calm,Calm,-,N/A,,Clear,0,2013-02-05 11:15:00
5:55 AM,33.8,28.4,81,29.93,10.0,Calm,Calm,-,N/A,,Clear,0,2013-02-05 11:55:00
6:15 AM,30.2,28.4,93,29.93,10.0,Calm,Calm,-,N/A,,Clear,0,2013-02-05 12:15:00
6:35 AM,32.0,28.4,87,29.94,10.0,Calm,Calm,-,N/A,,Clear,0,2013-02-05 12:35:00
7:15 AM,30.2,28.4,93,29.95,5.0,Calm,Calm,-,N/A,,Clear,0,2013-02-05 13:15:00
7:35 AM,30.2,26.6,86,29.96,5.0,Calm,Calm,-,N/A,,Clear,0,2013-02-05 13:35:00
8:15 AM,35.6,33.8,93,29.97,10.0,South,3.5,-,N/A,,Clear,180,2013-02-05 14:15:00
8:35 AM,37.4,33.8,87,29.98,10.0,South,3.5,-,N/A,,Clear,180,2013-02-05 14:35:00
8:55 AM,41.0,35.6,81,29.98,10.0,Calm,Calm,-,N/A,,Clear,0,2013-02-05 14:55:00
9:35 AM,44.6,37.4,76,30.00,10.0,Calm,Calm,-,N/A,,Clear,0,2013-02-05 15:35:00
9:55 AM,46.4,39.2,76,30.00,10.0,Calm,Calm,-,N/A,,Clear,0,2013-02-05 15:55:00
10:15 AM,50.0,42.8,76,30.01,10.0,West,5.8,-,N/A,,Clear,260,2013-02-05 16:15:00
10:55 AM,53.6,46.4,77,30.02,10.0,West,4.6,-,N/A,,Clear,260,2013-02-05 16:55:00
11:15 AM,57.2,46.4,67,30.02,10.0,WSW,8.1,-,N/A,,Clear,250,2013-02-05 17:15:00
11:36 AM,59.0,42.8,55,30.01,10.0,WSW,10.4,-,N/A,,Clear,250,2013-02-05 17:36:00
11:55 AM,60.8,39.2,45,30.01,10.0,West,9.2,-,N/A,,Clear,260,2013-02-05 17:55:00
12:15 PM,60.8,37.4,42,30.00,10.0,WSW,9.2,-,N/A,,Clear,250,2013-02-05 18:15:00
12:35 PM,60.8,37.4,42,29.99,10.0,West,9.2,-,N/A,,Clear,260,2013-02-05 18:35:00
1:15 PM,62.6,33.8,34,29.98,10.0,WNW,6.9,-,N/A,,Clear,300,2013-02-05 19:15:00
1:36 PM,62.6,35.6,37,29.97,10.0,NW,10.4,-,N/A,,Clear,320,2013-02-05 19:36:00
1:55 PM,62.6,35.6,37,29.97,10.0,WNW,8.1,-,N/A,,Clear,300,2013-02-05 19:55:00
2:15 PM,62.6,35.6,37,29.97,10.0,West,10.4,16.1,N/A,,Clear,280,2013-02-05 20:15:00
2:55 PM,64.4,33.8,32,29.96,10.0,West,11.5,-,N/A,,Clear,280,2013-02-05 20:55:00
3:35 PM,62.6,30.2,30,29.97,10.0,NNW,9.2,17.3,N/A,,Clear,340,2013-02-05 21:35:00
3:56 PM,62.6,32.0,32,29.98,10.0,NNW,9.2,-,N/A,,Clear,330,2013-02-05 21:56:00
4:15 PM,60.8,33.8,36,29.98,10.0,NNW,10.4,-,N/A,,Clear,340,2013-02-05 22:15:00
4:35 PM,60.8,32.0,34,29.98,10.0,NNW,8.1,-,N/A,,Clear,340,2013-02-05 22:35:00
4:56 PM,60.8,32.0,34,29.98,10.0,NW,5.8,-,N/A,,Clear,310,2013-02-05 22:56:00
5:15 PM,59.0,32.0,36,29.98,10.0,WNW,4.6,-,N/A,,Clear,300,2013-02-05 23:15:00
5:35 PM,57.2,33.8,41,29.99,10.0,WNW,3.5,-,N/A,,Clear,290,2013-02-05 23:35:00
5:56 PM,55.4,33.8,44,29.99,10.0,WNW,3.5,-,N/A,,Clear,300,2013-02-05 23:56:00
6:15 PM,53.6,33.8,47,29.99,10.0,Calm,Calm,-,N/A,,Clear,0,2013-02-06 00:15:00
6:35 PM,51.8,35.6,54,30.00,10.0,Calm,Calm,-,N/A,,Clear,0,2013-02-06 00:35:00
6:55 PM,48.2,32.0,54,30.01,10.0,Calm,Calm,-,N/A,,Clear,0,2013-02-06 00:55:00
7:15 PM,46.4,33.8,62,30.01,10.0,Calm,Calm,-,N/A,,Clear,0,2013-02-06 01:15:00
7:35 PM,46.4,35.6,66,30.02,10.0,NNW,3.5,-,N/A,,Clear,340,2013-02-06 01:35:00
7:55 PM,48.2,30.2,50,30.02,10.0,North,4.6,-,N/A,,Clear,10,2013-02-06 01:55:00
8:35 PM,48.2,30.2,50,30.02,10.0,NNE,4.6,-,N/A,,Clear,30,2013-02-06 02:35:00
8:55 PM,48.2,30.2,50,30.03,10.0,NE,3.5,-,N/A,,Clear,40,2013-02-06 02:55:00
9:15 PM,44.6,30.2,57,30.03,10.0,Calm,Calm,-,N/A,,Clear,0,2013-02-06 03:15:00
9:36 PM,44.6,30.2,57,30.04,10.0,Calm,Calm,-,N/A,,Clear,0,2013-02-06 03:36:00
9:55 PM,42.8,32.0,66,30.05,10.0,Calm,Calm,-,N/A,,Clear,0,2013-02-06 03:55:00
10:15 PM,41.0,32.0,70,30.04,10.0,Calm,Calm,-,N/A,,Clear,0,2013-02-06 04:15:00
10:35 PM,39.2,28.4,65,30.04,10.0,ENE,4.6,-,N/A,,Clear,60,2013-02-06 04:35:00
10:55 PM,41.0,30.2,65,30.05,10.0,Calm,Calm,-,N/A,,Clear,0,2013-02-06 04:55:00
11:15 PM,42.8,30.2,61,30.05,10.0,ENE,4.6,-,N/A,,Clear,60,2013-02-06 05:15:00
11:55 PM,39.2,30.2,70,30.05,10.0,Calm,Calm,-,N/A,,Clear,0,2013-02-06 05:55:00